Regional Weather Roundup
Issued by NWS Grand Forks, ND

Home | Current Version | Previous Version | Text Only | Print | Product List | Glossary On
Versions: 1 2 3 4 5 6 7 8 9 10 11 12 13 14 15 16 17 18 19 20 21 22 23 24 25 26 27 28 29 30 31 32 33 34 35 36 37 38 39 40 41 42 43 44 45 46 47 48 49 50
000
ASUS43 KFGF 270910
RWRFGF
PRAIRIE TO PINES  WEATHER ROUNDUP
NATIONAL WEATHER SERVICE EASTERN NORTH DAKOTA/GRAND FORKS ND
400 AM CDT THU JUL 27 2017

 **SATELLITE DATA USED TO AUGMENT SKY COVER AT AUTOMATED STATIONS**
 *****  WEATHER ACROSS EASTERN NORTH DAKOTA  *****

CITY           SKY/WX    TMP DP  RH WIND       PRES   REMARKS
GRAND FORKS    FAIR      58  57  97 CALM      30.10S
GRAND FRKS AFB FAIR      56  56  98 CALM      30.11S
DEVILS LAKE    FAIR      60  58  92 CALM      30.14S
FARGO          FAIR      59  57  93 N5        30.11S
WAHPETON ARPT  FAIR      57  54  88 CALM      30.12R
$$

 ***** WEATHER ACROSS CENTRAL AND WESTERN NORTH DAKOTA  *****

CITY           SKY/WX    TMP DP  RH WIND       PRES   REMARKS
BISMARCK       FAIR      63  57  81 CALM      30.14F
MINOT          MOCLDY    69  58  67 S9        30.11R
JAMESTOWN      FAIR      57  55  93 CALM      30.13S
MINOT AFB      MOCLDY    62  57  83 S3        30.10S
GARRISON         N/A     64  60  87 E9        30.11F
WILLISTON      MOCLDY    67  58  72 E12G23    30.08F
DICKINSON      FAIR      62  53  72 SE10      30.09F
HETTINGER      FAIR      65  52  62 SE8       30.14S
$$

 *****  OTHER AIRPORT OBSERVATIONS IN OUR AREA  *****

CITY           SKY/WX    TMP DP  RH WIND       PRES   REMARKS
WALHALLA       NOT AVBL
GRAFTON AIRPOR FAIR      59  59 100 CALM      30.12S
VALLEY CITY AR FAIR      55  55 100 CALM      30.14F
CANDO          NOT AVBL
CAVALIER APRT  FAIR      59  57  94 CALM      30.10S
GWINNER        SUNNY     59  57  94 CALM      30.13S
SHEYENNE NWR     N/A     55  55 100 CALM      29.95S
ROLLA            N/A     52  52 100 SW6       30.15R
 ***** THE ABOVE OBSERVATIONS ARE NON NWS ARE NOT QUALITY
       CONTROLLED AND MAY MIS-REPORT RAIN FOR SNOW...
$$

  *****  WEATHER ACROSS NORTHERN MINNESOTA  *****

CITY           SKY/WX    TMP DP  RH WIND       PRES   REMARKS
FLAG ISLAND    FAIR      66  61  82 NW3       30.07F
WARROAD        FAIR      57  54  88 CALM      30.10S
ROSEAU         FAIR      64  59  82 W9        30.09S
HALLOCK        FAIR      54  54 100 CALM      30.10S
THF RVR FALLS  FAIR      62  58  86 CALM      30.12S
BAUDETTE       FAIR      58  58 100 W3        30.09R
WASKISH        FAIR      61  57  88 CALM      30.10S
CROOKSTON      FAIR      61  57  88 CALM      30.12R
STEPHEN NDAWN    N/A     54  54 100 S2          N/A
GREENBUSH NDAW   N/A     57  55  94 S2          N/A
$$
  *****  WEATHER ACROSS CENTRAL AND WEST MINNESOTA  *****

CITY           SKY/WX    TMP DP  RH WIND       PRES   REMARKS
FOSSTON        FAIR      54  52  94 CALM      30.13S
BEMIDJI        FAIR      56  55  96 NW7       30.12R
PARK RAPIDS    FAIR      57  55  93 NW3       30.11S
ELBOW LAKE     FOG       64  61  93 CALM      30.12R VSB 3/4
WADENA         FAIR      59  59 100 N3        30.10F
DETROIT LAKES  FAIR      63  59  88 N3        30.13S
MOORHEAD       FAIR      61  57  88 CALM      30.12R
FERGUS FALLS   FAIR      63  61  94 NE3       30.11R
MORRIS MN      FAIR      63  61  94 NW7       30.10S
STAPLES        FAIR      59  57  94 CALM      30.10S
$$
  *****  WEATHER ELSEWHERE ACROSS MINNESOTA  *****

CITY           SKY/WX    TMP DP  RH WIND       PRES   REMARKS
DULUTH         FAIR      60  58  92 N6        30.07S
INTRNTL FALLS  FAIR      50  50 100 W3        30.07S FOG
ELY            FAIR      54  54 100 CALM      30.08S
CLOQUET        FAIR      59  55  88 NW6       30.08S
WHEATON        FAIR      61  57  88 CALM      30.13S
BRAINERD       FAIR      63  60  90 N5        30.09S
HIBBING        FAIR      51  51 100 CALM      30.09R
ALEXANDRIA     FAIR      64  60  87 N5        30.12S
SAINT CLOUD    FAIR      62  62 100 N3        30.08R
MINNEAPOLIS    FAIR      68  61  78 N7        30.04S
$$

  *****  WEATHER ACROSS SOUTH DAKOTA  *****

CITY           SKY/WX    TMP DP  RH WIND       PRES   REMARKS
SIOUX FALLS    FAIR      61  61 100 N3        30.10S
BROOKINGS      FAIR      61  60  97 CALM      30.12F
WATERTOWN      FAIR      59  57  93 CALM      30.13R
HURON          FAIR      62  60  93 CALM      30.11S
SISSETON         N/A     60  58  92 W5        30.11S
ABERDEEN       FAIR      59  57  93 CALM      30.12F
MITCHELL       FAIR      62  61  96 CALM      30.11F
PIERRE         FAIR      60  54  80 NE6       30.12S
MOBRIDGE       FAIR      64  58  80 SE8       30.11F
RAPID CITY     FAIR      68  54  60 S6        30.16F
$$

  *****  SOME WEATHER IN NEARBY STATES *****

CITY           SKY/WX    TMP DP  RH WIND       PRES   REMARKS
GLASGOW MT     FAIR      72  48  42 E18       29.98S
GREAT FALLS MT FAIR      70  42  36 S9        30.02R
CHEYENNE WY    FAIR      63  57  81 S7        30.28F
SCOTTSBLUFF NE MOCLDY    68  63  84 E7        30.19F
OMAHA NE       FAIR      70  67  90 NW8       30.01S
DES MOINES IA  FAIR      71  69  93 N5        29.97S
DAVENPORT IA   MOCLDY    70  69  97 NW3       29.95R
CHICAGO IL     MOCLDY    74  70  87 N8        29.90R
EAU CLAIRE WI  FAIR      60  59  96 N3        30.01S FOG
LA CROSSE WI   FAIR      68  66  93 N6        29.98S
$$

  *****  SOME NATIONAL WEATHER *****

CITY           SKY/WX    TMP DP  RH WIND       PRES   REMARKS
LA GUARDIA NY  MOCLDY    67  61  81 SW9       30.04F
RALEIGH NC     FAIR      74  66  76 S6        30.07S
ATLANTA GA     FAIR      74  68  81 SE5       30.08S
NEW ORLEANS LA FAIR      77  75  93 CALM      30.03S
OKLAHOMA CITY  MOCLDY    79  68  69 SW5       29.98R
ALBUQUERQUE NM MOCLDY    79  54  41 SE9       30.17F
SALT LAKE CITY FAIR      70  61  73 E3        30.16R
LOS ANGELES CA FAIR      67  64  90 N5        29.98S
BOISE ID       FAIR      71  54  54 SW6       30.05F
SEATTLE WA     FAIR      60  55  83 SW5       30.08R
$$

*** WEATHER ACROSS MANITOBA...SASKATCHEWAN AND ONTARIO ***
                ***ONTARIO***

CITY           SKY/WX    TMP DP  RH WIND       PRES   REMARKS
GERALDTON      MOCLDY    52  50  93 N2        30.04R
THUNDER BAY    CLEAR     57  55  94 VRB5      30.03R
SIOUX LOOKOUT  CLEAR     52  52 100 NE3       30.06S
TORONTO        LGT RAIN  66  64  94 W7        29.95R
BIG TROUT LK   CLEAR     52  52 100 N3        30.05R
PICKLE LAKE    NOT AVBL
DRYDEN         CLEAR     61  57  88 VRB2      30.07R
KENORA         CLEAR     64  57  77 NW6       30.09R
$$
                *** MANITOBA***

CITY           SKY/WX    TMP DP  RH WIND       PRES   REMARKS
BRANDON        CLEAR     54  52  94 N3        30.11F
DAUPHIN        CLEAR     59  57  94 W5        30.08S
ISLAND LAKE    NOT AVBL
PILOT MOUND      N/A     55  54  94 SW3         N/A
THE PAS        PTCLDY    61  57  88 VRB2      30.03S
THOMPSON       MOCLDY    61  61 100 SW2       29.99S
WINNIPEG       CLEAR     59  57  94 VRB2      30.08S
LYNN LAKE      CLEAR     61  59  94 SE6       29.97S
CHURCHILL      MOCLDY    57  55  94 NW7       29.91S
GILLAM         MOCLDY    61  54  77 SW7       29.98S
$$
                ***SASKATCHEWAN***

CITY           SKY/WX    TMP DP  RH WIND       PRES   REMARKS
ESTEVAN        PTCLDY    55  54  94 NE3       30.11S
KINDERSLEY     PTCLDY    63  48  59 SE10      30.00S
LLOYDMINSTER   CLEAR     57  52  82 SE7       29.99F
PRINCE ALBERT  PTCLDY    52  52 100 E5        30.05F FOG
REGINA         CLEAR     59  52  77 SE12      30.07F
YORKTON        CLEAR     61  55  82 S7        30.09F
N. BATTLEFORD  CLEAR     57  54  88 E8        30.02S
LA RONGE       MOCLDY    63  55  77 S6        30.00S
SASKATOON      CLEAR     57  54  88 SE6       30.03F
SWIFT CURRENT  CLEAR     64  48  55 S15G21    30.02F
$$
NOTE: THESE ARE AUTOMATED STATIONS WITH LIMITED QUALITY CONTROL
      "FAIR" INDICATES FEW OR NO CLOUDS BELOW 12,000 FEET WITH NO
      SIGNIFICANT WEATHER AND/OR OBSTRUCTIONS TO VISIBILITY.
      SKY/WX - SKY CONDITION AND SIGNIFICANT WEATHER.
      TMP - AIR TEMPERATURE.    DP   - DEWPOINT TEMPERATURE.
      RH  - RELATIVE HUMIDITY.  PRES - PRESSURE.
      HX  - HEAT INDEX.         WCI  - WIND CHILL INDEX.
$




USA.gov is the U.S. government's official web portal to all federal, state and local government web resources and services.